METEOSAT-10 (MSG-3) (38552 NORAD) Tracking and Keplerian Element Data

This shows tracking and keplerian element data for the satellite.

Feedback or suggestion? Click here.




ElementValue
Catalog38552
NameMETEOSAT-10 (MSG-3)
Epoch Orbit4905
Epoch Day353.33877227
Epoch Year2025
RAAN61.706
Inclination4.2433
Eccentricity6.93E-05
Argument of Perigee270.066
Mean Anonmoly238.6463
Mean Motion1.00276524
Decay Rate1.7E-07
L11 38552U 12035B 25353.33877227 .00000017 00000+0 00000+0 0 9997
L22 38552 4.2433 61.7060 0000693 270.0660 238.6463 1.00276524 49057



Live tracking and technical data element details for METEOSAT-10 (MSG-3) (NORAD 38552). METEOSAT-10 (MSG-3) can be tracked NOW for your location showing map with azimuth and elevation plus other details from your city location.







IsCatalogInMostPopularTable: catalog: 38552, numindb: 462
Update: records affected: 1



GetName: 38552 METEOSAT-10 (MSG-3)

Hit Count: updated at: Sat, 14 Mar 2026 02:21:20 GMT